| time (UTC) | temp F | wind direction | speed knots | gust knots | rain 1hr in | rain 24hr in | rain mn in | humidity % | barometer mb |
| 20260506191641 | 71 | 298 | 6.1 | 14.8 | 0.00 | 0.00 | 0.00 | 49 | 1019.7 |
| 20260506184531 | 70 | 352 | 7.8 | 13.9 | 0.00 | 0.00 | 0.00 | 52 | 1019.5 |
| 20260506181535 | 69 | 319 | 7.0 | 15.6 | 0.00 | 0.00 | 0.00 | 54 | 1019.8 |
| 20260506180031 | 68 | 346 | 7.0 | 13.0 | 0.00 | 0.00 | 0.00 | 56 | 1019.8 |
| 20260506174534 | 67 | 348 | 5.2 | 11.3 | 0.00 | 0.00 | 0.00 | 59 | 1019.7 |
| 20260506173034 | 66 | 9 | 4.3 | 7.8 | 0.00 | 0.00 | 0.00 | 60 | 1019.6 |
| 20260506171534 | 65 | 1 | 5.2 | 8.7 | 0.00 | 0.00 | 0.00 | 61 | 1019.7 |
| 20260506170033 | 64 | 14 | 4.3 | 7.8 | 0.00 | 0.00 | 0.00 | 63 | 1019.6 |
| 20260506164530 | 63 | 29 | 7.0 | 13.0 | 0.00 | 0.00 | 0.00 | 65 | 1019.8 |
| 20260506163107 | 63 | 26 | 7.0 | 10.4 | 0.00 | 0.00 | 0.00 | 66 | 1020.0 |
| 20260506161535 | 62 | 12 | 6.1 | 10.4 | 0.00 | 0.00 | 0.00 | 68 | 1020.1 |
| 20260506160031 | 61 | 26 | 4.3 | 7.8 | 0.00 | 0.00 | 0.00 | 69 | 1019.9 |
| 20260506154652 | 60 | 344 | 4.3 | 7.8 | 0.00 | 0.00 | 0.00 | 69 | 1020.0 |
| 20260506151643 | 60 | 64 | 0.9 | 4.3 | 0.00 | 0.00 | 0.00 | 73 | 1019.6 |
| 20260506150033 | 59 | 95 | 0.9 | 2.6 | 0.00 | 0.00 | 0.00 | 76 | 1019.8 |
| 20260506144531 | 59 | 108 | 0.9 | 3.5 | 0.00 | 0.00 | 0.00 | 81 | 1019.8 |
| 20260506143107 | 56 | 82 | 0.0 | 2.6 | 0.00 | 0.00 | 0.00 | 85 | 1019.8 |
| 20260506141535 | 53 | 82 | 0.9 | 4.3 | 0.00 | 0.00 | 0.00 | 89 | 1019.7 |
| 20260506140032 | 49 | 132 | 2.6 | 5.2 | 0.00 | 0.00 | 0.00 | 92 | 1019.6 |
| 20260506134606 | 45 | 142 | 3.5 | 5.2 | 0.00 | 0.00 | 0.00 | 92 | 1019.3 |
| 20260506133032 | 44 | 136 | 2.6 | 4.3 | 0.00 | 0.00 | 0.00 | 92 | 1019.2 |
| 20260506131645 | 43 | 145 | 2.6 | 5.2 | 0.00 | 0.00 | 0.00 | 92 | 1019.1 |
| 20260506130107 | 43 | 173 | 2.6 | 5.2 | 0.00 | 0.00 | 0.00 | 92 | 1019.0 |
| 20260506123036 | 43 | 180 | 3.5 | 4.3 | 0.00 | 0.00 | 0.00 | 92 | 1018.7 |
| 20260506121534 | 43 | 180 | 3.5 | 4.3 | 0.00 | 0.00 | 0.00 | 92 | 1018.5 |
| 20260506120035 | 43 | 184 | 3.5 | 4.3 | 0.00 | 0.00 | 0.00 | 91 | 1018.4 |
| 20260506114535 | 44 | 180 | 3.5 | 5.2 | 0.00 | 0.00 | 0.00 | 91 | 1018.3 |
| 20260506113034 | 44 | 200 | 3.5 | 4.3 | 0.00 | 0.00 | 0.00 | 91 | 1018.1 |
| 20260506111536 | 44 | 188 | 3.5 | 4.3 | 0.00 | 0.00 | 0.00 | 91 | 1018.0 |
| 20260506110030 | 44 | 180 | 3.5 | 4.3 | 0.00 | 0.00 | 0.00 | 91 | 1018.0 |
| 20260506104532 | 44 | 180 | 2.6 | 3.5 | 0.00 | 0.00 | 0.00 | 90 | 1017.8 |
| 20260506101530 | 45 | 158 | 0.9 | 2.6 | 0.00 | 0.00 | 0.00 | 90 | 1017.6 |
| 20260506100057 | 45 | 203 | 0.9 | 3.5 | 0.00 | 0.00 | 0.00 | 90 | 1017.6 |
| 20260506093142 | 45 | 180 | 0.9 | 3.5 | 0.00 | 0.00 | 0.00 | 89 | 1017.5 |
| 20260506091532 | 45 | 196 | 1.7 | 3.5 | 0.00 | 0.00 | 0.00 | 88 | 1017.4 |
| 20260506090035 | 46 | 202 | 1.7 | 3.5 | 0.00 | 0.00 | 0.00 | 88 | 1017.5 |
| 20260506084530 | 46 | 196 | 0.9 | 3.5 | 0.00 | 0.00 | 0.00 | 87 | 1017.3 |
| 20260506083110 | 47 | 168 | 0.9 | 3.5 | 0.00 | 0.00 | 0.00 | 86 | 1017.2 |
| 20260506081529 | 48 | 202 | 0.0 | 3.5 | 0.00 | 0.00 | 0.00 | 86 | 1017.1 |
| 20260506073032 | 50 | 253 | 0.0 | 0.0 | 0.00 | 0.00 | 0.00 | 84 | 1016.8 |
| 20260506061606 | 49 | 174 | 1.7 | 3.5 | 0.00 | 0.00 | 0.00 | 86 | 1016.5 |
| 20260506043035 | 53 | 193 | 2.6 | 3.5 | 0.00 | 0.00 | 0.00 | 80 | 1015.8 |
| 20260506041535 | 54 | 309 | 0.0 | 2.6 | 0.00 | 0.00 | 0.00 | 78 | 1015.7 |
| 20260506040043 | 55 | 305 | 0.0 | 1.7 | 0.00 | 0.00 | 0.00 | 76 | 1015.5 |
| 20260506034607 | 57 | 129 | 0.0 | 1.7 | 0.00 | 0.00 | 0.00 | 73 | 1015.2 |
| 20260506033040 | 58 | 112 | 0.0 | 1.7 | 0.00 | 0.00 | 0.00 | 70 | 1015.0 |
| 20260506031530 | 60 | 219 | 0.0 | 3.5 | 0.00 | 0.00 | 0.00 | 66 | 1014.8 |
| 20260506030031 | 64 | 261 | 0.9 | 2.6 | 0.00 | 0.00 | 0.00 | 62 | 1014.6 |
| 20260506024531 | 65 | 318 | 0.9 | 4.3 | 0.00 | 0.00 | 0.00 | 60 | 1014.5 |
| 20260506023107 | 67 | 339 | 2.6 | 6.1 | 0.00 | 0.00 | 0.00 | 58 | 1014.4 |
| 20260506021532 | 68 | 1 | 4.3 | 7.0 | 0.00 | 0.00 | 0.00 | 57 | 1014.4 |
| 20260506020034 | 69 | 5 | 4.3 | 8.7 | 0.00 | 0.00 | 0.00 | 56 | 1014.2 |
| 20260506014533 | 70 | 357 | 6.1 | 9.6 | 0.00 | 0.00 | 0.00 | 54 | 1014.1 |
| 20260506013032 | 72 | 5 | 7.0 | 10.4 | 0.00 | 0.00 | 0.00 | 52 | 1014.0 |
| 20260506010107 | 73 | 354 | 5.2 | 8.7 | 0.00 | 0.00 | 0.00 | 51 | 1014.0 |
| 20260506000031 | 73 | 348 | 6.1 | 9.6 | 0.00 | 0.00 | 0.00 | 53 | 1014.1 |
| 20260505234534 | 74 | 351 | 6.1 | 9.6 | 0.00 | 0.00 | 0.00 | 53 | 1014.2 |
| 20260505233032 | 74 | 349 | 6.1 | 9.6 | 0.00 | 0.00 | 0.00 | 52 | 1014.3 |
| 20260505231531 | 73 | 354 | 6.1 | 9.6 | 0.00 | 0.00 | 0.00 | 52 | 1014.3 |
| 20260505230108 | 74 | 8 | 6.1 | 9.6 | 0.00 | 0.00 | 0.00 | 52 | 1014.3 |
| 20260505224607 | 74 | 348 | 4.3 | 7.0 | 0.00 | 0.00 | 0.00 | 51 | 1014.5 |
| 20260505214535 | 74 | 345 | 4.3 | 9.6 | 0.00 | 0.00 | 0.00 | 51 | 1014.8 |
| 20260505211531 | 73 | 338 | 4.3 | 9.6 | 0.00 | 0.00 | 0.00 | 52 | 1014.9 |
| 20260505204536 | 73 | 341 | 3.5 | 7.8 | 0.00 | 0.00 | 0.00 | 51 | 1015.2 |
| 20260505201532 | 72 | 330 | 4.3 | 7.8 | 0.00 | 0.00 | 0.00 | 53 | 1015.2 |
| 20260505194530 | 71 | 355 | 4.3 | 8.7 | 0.00 | 0.00 | 0.00 | 54 | 1015.3 |
| 20260505193032 | 70 | 347 | 4.3 | 10.4 | 0.00 | 0.00 | 0.00 | 54 | 1015.4 |